TimeCST,TemperatureF,Dew PointF,Humidity,Sea Level PressureIn,VisibilityMPH,Wind Direction,Wind SpeedMPH,Gust SpeedMPH,PrecipitationIn,Events,Conditions,WindDirDegrees,DateUTC
12:53 AM,32.0,26.1,79,30.58,10.0,North,5.8,-,N/A,,Clear,10,2013-12-12 06:53:00
1:53 AM,30.0,25.0,82,30.57,10.0,North,4.6,-,N/A,,Clear,10,2013-12-12 07:53:00
2:53 AM,28.9,24.1,82,30.59,10.0,North,4.6,-,N/A,,Clear,360,2013-12-12 08:53:00
3:53 AM,28.9,24.1,82,30.60,10.0,NNE,6.9,-,N/A,,Clear,20,2013-12-12 09:53:00
4:53 AM,28.0,24.1,85,30.59,10.0,NNE,6.9,-,N/A,,Clear,20,2013-12-12 10:53:00
5:53 AM,27.0,24.1,89,30.61,10.0,North,5.8,-,N/A,,Clear,10,2013-12-12 11:53:00
6:53 AM,26.1,23.0,88,30.61,10.0,Calm,Calm,-,N/A,,Clear,0,2013-12-12 12:53:00
7:53 AM,28.0,25.0,88,30.62,9.0,NNE,4.6,-,N/A,,Clear,20,2013-12-12 13:53:00
8:53 AM,30.9,25.0,79,30.63,9.0,ENE,8.1,-,N/A,,Clear,60,2013-12-12 14:53:00
9:53 AM,36.0,26.1,67,30.64,10.0,ENE,6.9,-,N/A,,Clear,60,2013-12-12 15:53:00
10:53 AM,39.0,21.0,49,30.63,10.0,ENE,6.9,-,N/A,,Clear,70,2013-12-12 16:53:00
11:53 AM,42.1,21.9,45,30.60,10.0,NE,8.1,-,N/A,,Clear,40,2013-12-12 17:53:00
12:53 PM,44.1,21.0,40,30.56,10.0,ENE,6.9,-,N/A,,Clear,70,2013-12-12 18:53:00
1:53 PM,46.0,21.9,39,30.53,10.0,Variable,3.5,-,N/A,,Clear,0,2013-12-12 19:53:00
2:53 PM,46.9,21.9,37,30.51,10.0,NE,4.6,-,N/A,,Clear,50,2013-12-12 20:53:00
3:53 PM,46.0,21.9,39,30.50,10.0,ENE,3.5,-,N/A,,Clear,60,2013-12-12 21:53:00
4:53 PM,44.1,24.1,45,30.48,10.0,Calm,Calm,-,N/A,,Clear,0,2013-12-12 22:53:00
5:53 PM,34.0,28.0,79,30.48,10.0,Calm,Calm,-,N/A,,Clear,0,2013-12-12 23:53:00
6:53 PM,30.0,27.0,88,30.46,10.0,Calm,Calm,-,N/A,,Clear,0,2013-12-13 00:53:00
7:53 PM,28.9,26.1,89,30.44,10.0,Calm,Calm,-,N/A,,Clear,0,2013-12-13 01:53:00
8:53 PM,28.9,25.0,85,30.44,10.0,Calm,Calm,-,N/A,,Clear,0,2013-12-13 02:53:00
9:53 PM,28.0,25.0,88,30.43,10.0,Calm,Calm,-,N/A,,Clear,0,2013-12-13 03:53:00
10:53 PM,28.0,26.1,92,30.42,10.0,Calm,Calm,-,N/A,,Clear,0,2013-12-13 04:53:00
11:53 PM,28.9,26.1,89,30.40,10.0,Calm,Calm,-,N/A,,Clear,0,2013-12-13 05:53:00